Weather History for Columbia, MO

Change the Weather History Date:

Monday, July 23, 2012

  Actual Average Record
Temperature  
Mean Temperature 91 °F 78 °F  
Max Temperature 105 °F 88 °F 110 °F (1901)
Min Temperature 76 °F 67 °F 50 °F (1894)
Degree Days  
Heating Degree Days 0 0  
Month to date heating degree days 0 0  
Since 1 June heating degree days 7 11  
Since 1 July heating degree days 0 0  
Cooling Degree Days 26 12  
Month to date cooling degree days 475 282  
Year to date cooling degree days 1129 633  
Since 1 June cooling degree days 844 530  
Growing Degree Days 40 (Base 50)    
Moisture  
Dew Point 64 °F    
Average Humidity 50    
Maximum Humidity 74    
Minimum Humidity 25    
Precipitation  
Precipitation 0.00 in 0.13 in 3.37 in (1981)
Month to date precipitation 1.15 3.37  
Year to date precipitation 19.87 24.39  
Snow  
Snow 0.00 in 0.00 in 0.00 in (2013)
Month to date snowfall 0.0 0.0  
Since 1 June snowfall 0.0 0.0  
Since 1 July snowfall 0.0 0.0  
Snow Depth 0.00 in    
Sea Level Pressure  
Sea Level Pressure 30.01 in    
Wind  
Wind Speed 7 mph (SSW)    
Max Wind Speed 15 mph    
Max Gust Speed 22 mph    
Visibility 10 miles    
Events      
T = Trace of Precipitation, MM = Missing Value Source: NWS Daily Summary

Daily Weather History Graph

Daily Weather History Graph

Search for Another Location

Airport:

Trip Planner

Search our weather history database for the weather conditions in past years. The results will help you decide how hot, cold, wet, or windy it might be!

Date:

Astronomy

Jul. 23, 2012 Rise Set
Actual Time 6:02 AM CDT 8:27 PM CDT
Civil Twilight 5:32 AM CDT 8:57 PM CDT
Nautical Twilight 4:54 AM CDT 9:35 PM CDT
Astronomical Twilight 4:13 AM CDT 10:16 PM CDT
Moon 10:50 AM CDT (7/23) 10:46 PM CDT (7/23)
Length of Visible Light 15h 25m
Length of Day
14h 24m
Waxing Crescent, 22% of the Moon is Illuminated
Jul 23
Waxing Crescent
Jul 26
First Quarter
Aug 1
Full
Aug 9
Last Quarter
Aug 17
New

Hourly Weather History & Observations

Time (CDT) Temp. Heat Index Dew Point Humidity Pressure Visibility Wind Dir Wind Speed Gust Speed Precip Events Conditions
12:54 AM 79.0 °F - 60.1 °F 52% 30.03 in 10.0 mi South 6.9 mph - N/A   Clear
1:54 AM 80.1 °F 80.9 °F 60.1 °F 50% 30.02 in 10.0 mi South 8.1 mph - N/A   Clear
2:54 AM 80.1 °F 81.2 °F 62.1 °F 54% 30.01 in 10.0 mi South 9.2 mph - N/A   Clear
3:54 AM 79.0 °F - 64.0 °F 60% 30.03 in 10.0 mi South 5.8 mph - N/A   Clear
4:54 AM 77.0 °F - 64.9 °F 66% 30.05 in 10.0 mi South 5.8 mph - N/A   Clear
5:54 AM 75.9 °F - 66.0 °F 71% 30.06 in 10.0 mi South 5.8 mph - N/A   Clear
6:54 AM 78.1 °F - 66.9 °F 68% 30.06 in 10.0 mi South 5.8 mph - N/A   Clear
7:54 AM 84.0 °F 87.0 °F 68.0 °F 58% 30.07 in 10.0 mi SW 6.9 mph - N/A   Clear
8:54 AM 88.0 °F 91.4 °F 68.0 °F 51% 30.07 in 10.0 mi WSW 11.5 mph - N/A   Clear
9:54 AM 91.9 °F 96.9 °F 69.1 °F 47% 30.06 in 10.0 mi WSW 10.4 mph - N/A   Clear
10:54 AM 96.1 °F 101.0 °F 68.0 °F 40% 30.06 in 10.0 mi WSW 8.1 mph 19.6 mph N/A   Clear
11:54 AM 98.1 °F 102.4 °F 66.9 °F 36% 30.04 in 10.0 mi WSW 12.7 mph 16.1 mph N/A   Clear
12:54 PM 100.9 °F 104.6 °F 64.9 °F 31% 30.02 in 10.0 mi West 8.1 mph - N/A   Clear
1:54 PM 100.9 °F 104.6 °F 64.9 °F 31% 30.00 in 10.0 mi SSW 8.1 mph - N/A   Clear
2:54 PM 104.0 °F 106.6 °F 63.0 °F 26% 29.98 in 10.0 mi SW 11.5 mph - N/A   Clear
3:54 PM 102.9 °F 104.2 °F 61.0 °F 25% 29.97 in 10.0 mi SW 5.8 mph - N/A   Clear
4:54 PM 105.1 °F 107.8 °F 62.1 °F 25% 29.95 in 10.0 mi SW 9.2 mph - N/A   Clear
5:54 PM 102.2 °F 102.4 °F 59.0 °F 24% 29.98 in 10.0 mi SSW 6.9 mph - N/A   Clear
6:54 PM 102.0 °F 103.3 °F 61.0 °F 26% 29.94 in 10.0 mi SW 8.1 mph - N/A   Clear
7:54 PM 95.0 °F 97.4 °F 64.9 °F 37% 29.94 in 10.0 mi SW 3.5 mph - N/A   Clear
8:54 PM 93.0 °F 94.6 °F 64.0 °F 38% 29.94 in 10.0 mi Calm Calm - N/A   Clear
9:54 PM 87.1 °F 88.9 °F 64.9 °F 48% 29.96 in 10.0 mi South 4.6 mph - N/A   Clear
10:54 PM 87.1 °F 87.8 °F 63.0 °F 44% 29.96 in 10.0 mi South 6.9 mph - N/A   Clear
11:54 PM 86.0 °F 87.3 °F 64.0 °F 48% 29.97 in 10.0 mi SSW 6.9 mph - N/A   Clear